Regional Weather Roundup
Issued by NWS

Home | Current Version | Previous Version | Text Only | Print | Product List | Glossary On
Versions: 1 2 3 4 5 6 7 8 9 10 11 12 13 14 15 16 17 18 19 20 21 22 23 24 25 26 27 28 29 30 31 32 33 34 35 36 37 38 39 40 41 42 43 44 45 46 47 48 49 50
000
ASUS43 KLSX 232007
RWRMO

WEATHER SUMMARY FOR MISSOURI
NATIONAL WEATHER SERVICE SPRINGFIELD MO
300 PM CDT SUN JUL 23 2017

NOTE: "FAIR" INDICATES FEW OR NO CLOUDS BELOW 12,000 FEET WITH NO
       SIGNIFICANT WEATHER AND/OR OBSTRUCTIONS TO VISIBILITY.
       CURRENT SKY AND/OR WEATHER CONDITIONS ARE NOT AVAILABLE FOR
       CHILLICOTHE AND FARMINGTON.

MOZ001>031-035>038-043-044-053-054-232100-
...NORTHERN AND WESTERN MISSOURI...

CITY           SKY/WX    TMP DP  RH WIND       PRES   REMARKS
KANSAS CTY INT MOSUNNY   91  73  55 VRB6      29.92F HX  99
KANSAS C DTWN  SUNNY     93  74  53 N5        29.90F HX 103
LEE`S SUMMIT   SUNNY     89  73  59 CALM      29.93F HX  97
ST JOSEPH      MOSUNNY   90  78  68 N8        29.91F HX 104
CHILLICOTHE      N/A     93  76  57 VRB3      29.90F HX 105
KIRKSVILLE     SUNNY     94  66  39 NW6       29.89S HX  97

$$
MOZ066>068-077>081-088>096-101>105-232100-
...SOUTHWEST MISSOURI...

CITY           SKY/WX    TMP DP  RH WIND       PRES   REMARKS
SPRINGFIELD    LGT RAIN  84  66  54 CALM      29.93F
JOPLIN         PTSUNNY   93  65  39 S6        29.91F HX  95
BRANSON        PTSUNNY   93  63  36 N5        29.91F HX  94

$$
MOZ032>034-039>042-045>050-055>058-069>072-232100-
...CENTRAL MISSOURI...

CITY           SKY/WX    TMP DP  RH WIND       PRES   REMARKS
COLUMBIA       MOSUNNY   89  68  49 W8        29.91S HX  93
JEFFERSON CITY MOSUNNY   89  71  55 NW5       29.88F HX  95
ROLLA          PTSUNNY   85  70  60 SW5       29.92F
SEDALIA        SUNNY     90  74  59 CALM      29.93S HX  99
WHITEMAN AFB   MOSUNNY   89  71  55 NW7       29.90F HX  94
OSAGE BEACH    PTSUNNY   90  65  43 VRB3      29.92F HX  92

$$
MOZ051-052-059>065-232100-
...EAST CENTRAL MISSOURI...

CITY           SKY/WX    TMP DP  RH WIND       PRES   REMARKS
ST LOUIS INTL  NOT AVBL
SPIRIT OF STL  MOSUNNY   88  70  55 SW6       29.87F HX  93
ST CHARLES     SUNNY     88  71  57 VRB6      29.86F HX  94

$$
MOZ072>076-082>087-097>100-106>115-232100-
...SOUTH CENTRAL AND SOUTHEAST MISSOURI...

CITY           SKY/WX    TMP DP  RH WIND       PRES   REMARKS
CAPE GIRARDEAU SUNNY     93  66  40 MISG      29.84F HX  96
FARMINGTON     MOSUNNY   89  65  44 VRB3      29.90F HX  91
POPLAR BLUFF   MOSUNNY   90  76  63 E5        29.85F HX 101
WEST PLAINS    MOSUNNY   94  61  33 NE9       29.92S HX  94

$$




USA.gov is the U.S. government's official web portal to all federal, state and local government web resources and services.